Location: Unspecified
(0.0000°N, 0.0000°E)
Time: 07:24:43
(UTC+00:00)

Vanguard 2 Rocket - Pass Details

Date: 13 December 2017
Orbit: 553 x 3328 km, 32.9° (Epoch: 23 June)

Event Time Altitude Azimuth Distance (km) Brightness Sun altitude
Rises 13:54:56 0° 205° (SSW) 2,880 10.0 52.6°
Reaches altitude 10° 13:57:29 10° 187° (S) 2,148 9.4 52.2°
Maximum altitude 14:01:08 20° 138° (SE) 1,856 8.7 51.5°
Drops below altitude 10° 14:06:01 10° 92° (E) 3,000 9.4 50.5°
Sets 14:10:26 0° 78° (ENE) 4,485 10.1 49.6°
